Location: Danville Conservation Area
(38.8674°N, 91.5143°W)
Time: 00:00:23
(UTC-06:00)

Envisat - Pass Details

Date: 07 December 2021
Orbit: 764 x 766 km, 98.2° (Epoch: 23 January)

Event Time Altitude Azimuth Distance (km) Brightness Sun altitude
Rises 04:22:56 0° 23° (NNE) 3,239 6.5 -32.0°
Reaches altitude 10° 04:25:28 10° 32° (NNE) 2,308 5.7 -31.5°
Maximum altitude 04:30:03 33° 97° (E) 1,262 4.6 -30.6°
Drops below altitude 10° 04:34:35 10° 161° (SSE) 2,292 5.7 -29.8°
Sets 04:37:05 0° 170° (S) 3,213 6.4 -29.3°
